This is the latest recevied weather packets stored in our database for station/object VE9LJW. If no packets are shown the sender has not sent any weather packets the latest 10 day(s).
| Time | Temp. | Humidity | Pressure | Rain* | Wind** | Luminosity | Snow |
|---|---|---|---|---|---|---|---|
| 1777733858 | 15° C | 51% | 1011.1 hPa | 0 mm | - | 777 W/m² | - |
| 1777733555 | 13.89° C | 55% | 1011.5 hPa | 0 mm | - | 658 W/m² | - |
| 1777733251 | 13.89° C | 53% | 1011.2 hPa | 0 mm | - | 783 W/m² | - |
| 1777732948 | 12.78° C | 53% | 1011.3 hPa | 0 mm | - | 653 W/m² | - |
| 1777732644 | 13.33° C | 58% | 1011.2 hPa | 0 mm | - | 735 W/m² | - |
| 1777732342 | 13.33° C | 55% | 1011.3 hPa | 0 mm | - | 705 W/m² | - |
| 1777732039 | 13.33° C | 58% | 1011.2 hPa | 0 mm | - | 718 W/m² | - |
| 1777731736 | 12.78° C | 57% | 1011.3 hPa | 0 mm | - | 710 W/m² | - |
| 1777731433 | 13.33° C | 58% | 1011.3 hPa | 0 mm | - | 548 W/m² | - |
| 1777731131 | 13.33° C | 62% | 1011.2 hPa | 0 mm | - | 618 W/m² | - |
| 1777730526 | 12.78° C | 62% | 1011.5 hPa | 0 mm | - | 620 W/m² | - |
| 1777730221 | 12.22° C | 60% | 1011.3 hPa | 0 mm | - | 670 W/m² | - |
| 1777729919 | 12.22° C | 63% | 1011.2 hPa | 0 mm | - | 553 W/m² | - |
| 1777729614 | 11.11° C | 70% | 1011.3 hPa | 0 mm | - | 541 W/m² | - |
| 1777729312 | 10.56° C | 72% | 1011.2 hPa | 0 mm | - | 524 W/m² | - |
| 1777729008 | 10.56° C | 70% | 1011.5 hPa | 0 mm | - | 533 W/m² | - |
| 1777728705 | 10.56° C | 71% | 1011.4 hPa | 0 mm | - | 510 W/m² | - |
| 1777728402 | 11.11° C | 71% | 1011.7 hPa | 0 mm | - | 422 W/m² | - |
| 1777728099 | 10.56° C | 71% | 1011.5 hPa | 0 mm | - | 508 W/m² | - |
| 1777727796 | 10° C | 71% | 1011.4 hPa | 0 mm | - | 458 W/m² | - |
| 1777727493 | 10° C | 71% | 1011.6 hPa | 0 mm | - | 469 W/m² | - |
| 1777727190 | 9.44° C | 71% | 1011.4 hPa | 0 mm | - | 499 W/m² | - |
| 1777726888 | 10° C | 73% | 1011.5 hPa | 0 mm | - | 410 W/m² | - |
| 1777726584 | 10.56° C | 75% | 1011.7 hPa | 0 mm | - | 418 W/m² | - |
| 1777726282 | 9.44° C | 73% | 1011.7 hPa | 0 mm | - | 436 W/m² | - |
* Rain latest hour (hover to see other rain measurements)
** Current wind speed in m/s (hover to see current wind gust speed)